Torna al catalogo

HAWK-11A

AttivoScienzaVLEO
NORAD 62382·PAYLOAD·🇺🇸 United States

Lanciato Dec 21, 2024 da Vandenberg Space Force Base

Loading…

Prossimi Passaggi (prossime 24 ore)

TLE

AggiornatoSource: Space-Track

Epoca: Sep 14, 2026, 10:29 UTC

1 62382U 24247F   26257.43725357  .00005205  00000-0  17845-3 0  9998
2 62382  44.9929 158.7220 0002644   0.5607 359.5280 15.31362209 96682

Traccia HAWK-11A in tempo reale con AllMySat

Download on the App Store